Karlovy Vary, Czech Republic

10:45 PM CEST on June 24, 2017 (GMT +0200)
Karlovy Vary

Weather History for LKKV - March, 2014

Change the Weather History Date:

Tuesday, March 18, 2014

  Actual Average (EDQM) Record (EDQM)
Temperature  
Mean Temperature 44 °F -  
Max Temperature 51 °F 41 °F 66 °F (2004)
Min Temperature 36 °F 30 °F 23 °F (1999)
Degree Days  
Heating Degree Days 22    
Moisture  
Dew Point 39 °F    
Average Humidity 78    
Maximum Humidity 100    
Minimum Humidity 50    
Precipitation  
Precipitation 0.12 in - - ()
Sea Level Pressure  
Sea Level Pressure 29.95 in    
Wind  
Wind Speed 6 mph ()    
Max Wind Speed 13 mph    
Max Gust Speed -    
Visibility 6.2 miles    
Events Rain    
Averages and records for this station are not official NWS values.
T = Trace of Precipitation, MM = Missing Value Source: Averaged Metar Reports

Daily Weather History Graph

Daily Weather History Graph

Search for Another Location

Airport or City:

Trip Planner

Search our weather history database for the weather conditions in past years. The results will help you decide how hot, cold, wet, or windy it might be!

Date:

Astronomy

Mar. 18, 2014 Rise Set
Actual Time 6:15 AM CET 6:17 PM CET
Civil Twilight 5:43 AM CET 6:50 PM CET
Nautical Twilight 5:05 AM CET 7:28 PM CET
Astronomical Twilight 4:26 AM CET 8:07 PM CET
Moon 8:32 PM CET (3/18) 6:44 AM CET (3/18)
Length of Visible Light 13h 06m
Length of Day
12h 01m
Full, 97% of the Moon is Illuminated
Mar 18
Full
Mar 24
Last Quarter
Mar 30
New
Apr 7
First Quarter
Apr 15
Full

Hourly Weather History & Observations

Time (CET) Temp. Windchill Dew Point Humidity Pressure Visibility Wind Dir Wind Speed Gust Speed Precip Events Conditions
12:00 AM 43 °F - 36 °F 67%  in 9 mi WSW 4.5 mph - -   Partly Cloudy
12:00 AM 42.8 °F 40.1 °F 35.6 °F 76% 30.06 in 6.2 mi West 4.6 mph - N/A   Scattered Clouds
1:00 AM 39 °F - 35 °F 80%  in 9 mi WSW 4.5 mph - -   Scattered Clouds
1:00 AM 39.2 °F 37.0 °F 35.6 °F 87% 30.06 in 6.2 mi SSW 3.5 mph - N/A   Partly Cloudy
2:00 AM 38 °F - 35 °F 84%  in 9 mi WNW 4.5 mph - -   Scattered Clouds
2:00 AM 37.4 °F - 35.6 °F 93% 30.04 in 6.2 mi Variable 2.3 mph - N/A   Partly Cloudy
3:00 AM 39 °F - 36 °F 84%  in 9 mi SW 4.5 mph - -   Mostly Cloudy
3:00 AM 39.2 °F 37.0 °F 35.6 °F 87% 30.04 in 6.2 mi SW 3.5 mph - N/A   Mostly Cloudy
4:00 AM 37.4 °F - 35.6 °F 93% 30.04 in 6.2 mi Variable 1.2 mph - N/A   Overcast
5:00 AM 41.0 °F 39.0 °F 35.6 °F 81% 30.01 in 6.2 mi SW 3.5 mph - N/A   Overcast
6:00 AM 41.0 °F - 37.4 °F 87% 30.01 in 6.2 mi Variable 2.3 mph - N/A   Mostly Cloudy
7:00 AM 41 °F - 36 °F 76%  in 7 mi SSW 2.2 mph - -   Mostly Cloudy
7:00 AM 41.0 °F - 35.6 °F 81% 30.01 in 6.2 mi Variable 1.2 mph - N/A   Mostly Cloudy
7:30 AM 42.8 °F - 35.6 °F 76% 29.98 in 6.2 mi Variable 2.3 mph - N/A   Mostly Cloudy
8:00 AM 43 °F - 37 °F 71%  in 7 mi West 6.7 mph - -   Mostly Cloudy
8:00 AM 42.8 °F 40.1 °F 37.4 °F 81% 29.98 in 6.2 mi West 4.6 mph - N/A   Mostly Cloudy
8:30 AM 42.8 °F 38.0 °F 37.4 °F 81% 29.98 in 6.2 mi WSW 8.1 mph - N/A   Mostly Cloudy
9:00 AM 45 °F - 37 °F 64%  in 9 mi West 8.9 mph - -   Mostly Cloudy
9:00 AM 44.6 °F 40.2 °F 37.4 °F 76% 29.98 in 6.2 mi WSW 8.1 mph - N/A   Mostly Cloudy
9:30 AM 46.4 °F 41.5 °F 37.4 °F 71% 29.98 in - West 10.4 mph - N/A   Clear
10:00 AM 47 °F - 37 °F 57%  in 9 mi West 13.4 mph - -   Partly Cloudy
10:00 AM 48.2 °F - 37.4 °F 66% 29.98 in 6.2 mi West 11.5 mph - N/A   Scattered Clouds
10:30 AM 48.2 °F - 37.4 °F 66% 29.98 in 6.2 mi WSW 11.5 mph - N/A   Mostly Cloudy
11:00 AM 48 °F - 37 °F 57%  in 9 mi West 11.2 mph - -   Scattered Clouds
11:00 AM 48.2 °F - 37.4 °F 66% 29.98 in 6.2 mi West 12.7 mph - N/A   Partly Cloudy
11:30 AM 48.2 °F - 37.4 °F 66% 29.98 in 6.2 mi West 11.5 mph - N/A   Partly Cloudy
12:00 PM 49 °F - 38 °F 55%  in 9 mi West 8.9 mph - -   Scattered Clouds
12:00 PM 50.0 °F - 37.4 °F 62% 29.95 in 6.2 mi West 11.5 mph - N/A   Partly Cloudy
12:30 PM 50.0 °F - 37.4 °F 62% 29.95 in 6.2 mi West 11.5 mph - N/A   Partly Cloudy
1:00 PM 51 °F - 38 °F 50%  in 9 mi WSW 8.9 mph - -   Scattered Clouds
1:00 PM 51.8 °F - 39.2 °F 62% 29.95 in 6.2 mi WSW 8.1 mph - N/A   Partly Cloudy
1:30 PM 50.0 °F - 39.2 °F 66% 29.92 in - WSW 8.1 mph - N/A   Clear
2:00 PM 51 °F - 38 °F 50%  in 9 mi West 13.4 mph - -   Mostly Cloudy
2:00 PM 51.8 °F - 39.2 °F 62% 29.95 in - West 11.5 mph - N/A   Clear
2:12 PM 50.0 °F - 39.2 °F 66% 29.95 in 6.2 mi West 10.4 mph - N/A Rain Light Rain
2:30 PM 50.0 °F - 39.2 °F 66% 29.95 in 6.2 mi West 10.4 mph - N/A Rain Light Rain
3:00 PM 49 °F - 40 °F 61%  in 9 mi West 8.9 mph - - Rain Light Rain
3:00 PM 50.0 °F - 39.2 °F 66% 29.92 in 6.2 mi West 6.9 mph - N/A Rain Light Rain
3:30 PM 48.2 °F - 41.0 °F 76% 29.92 in 6.2 mi West 8.1 mph - N/A Rain Light Rain
4:00 PM 47 °F - 42 °F 75%  in 7 mi WSW 6.7 mph - - Rain Light Rain
4:00 PM 48.2 °F - 42.8 °F 82% 29.92 in 6.2 mi WSW 6.9 mph - N/A Rain Light Rain
4:11 PM 46.4 °F 43.5 °F 42.8 °F 87% 29.92 in 3.1 mi WSW 5.8 mph - N/A Rain Light Rain
4:30 PM 46.4 °F 43.5 °F 42.8 °F 87% 29.92 in 3.1 mi WSW 5.8 mph - N/A Rain Light Rain
5:00 PM 46 °F - 43 °F 85%  in 4 mi WSW 4.5 mph - - Rain Light Rain
5:00 PM 46.4 °F 44.3 °F 42.8 °F 87% 29.92 in 4.3 mi WSW 4.6 mph - N/A Rain Light Rain
5:30 PM 46.4 °F - 42.8 °F 87% 29.89 in - Variable 2.3 mph - N/A Rain Light Rain
6:00 PM 46 °F - 44 °F 88%  in 3 mi WSW 4.5 mph - - Rain Light Rain
6:00 PM 46.4 °F - 44.6 °F 93% 29.89 in 2.8 mi WSW 2.3 mph - N/A Rain Light Rain
6:30 PM 46.4 °F - 44.6 °F 93% 29.89 in - Variable 2.3 mph - N/A Rain Light Rain
7:00 PM 45 °F - 44 °F 93%  in 2 mi WSW 2.2 mph - - Rain Light Rain
7:00 PM 44.6 °F 42.2 °F 44.6 °F 100% 29.89 in 1.9 mi WNW 4.6 mph - N/A Rain Light Rain
7:30 PM 44.6 °F 42.2 °F 44.6 °F 100% 29.89 in - West 4.6 mph - N/A Rain Rain
8:00 PM 45 °F - 43 °F 92%  in 3 mi WSW 6.7 mph - - Rain Light Rain
8:00 PM 44.6 °F 41.4 °F 42.8 °F 93% 29.89 in 3.1 mi WSW 5.8 mph - N/A Rain Light Rain
9:00 PM 45 °F - 44 °F 92%  in 5 mi SW 6.7 mph - - Rain Light Rain
9:00 PM 44.6 °F 40.7 °F 44.6 °F 100% 29.89 in 5.0 mi SSW 6.9 mph - N/A   Mostly Cloudy
9:05 PM 44.6 °F 41.4 °F 42.8 °F 93% 29.89 in 6.2 mi SW 5.8 mph - N/A Rain Light Rain
10:00 PM 45 °F - 42 °F 86%  in 6 mi WSW 4.5 mph - - Rain Light Rain
10:00 PM 44.6 °F - 42.8 °F 93% 29.86 in 5.6 mi Variable 2.3 mph - N/A   Unknown
11:00 PM 44 °F - 40 °F 81%  in 9 mi West 6.7 mph - -   Partly Cloudy
11:00 PM 44.6 °F 40.2 °F 41.0 °F 87% 29.86 in - WSW 8.1 mph - N/A   Clear